Weather History for Molokai, HI

Change the Weather History Date:

Friday, April 11, 2014

  Actual Average Record
Temperature  
Mean Temperature 74 °F -  
Max Temperature 78 °F 78 °F 84 °F (1987)
Min Temperature 69 °F 64 °F 59 °F (1982)
Cooling Degree Days 8    
Growing Degree Days 24 (Base 50)    
Moisture  
Dew Point 63 °F    
Average Humidity 74    
Maximum Humidity 84    
Minimum Humidity 60    
Precipitation  
Precipitation 0.00 in - - ()
Sea Level Pressure  
Sea Level Pressure 30.08 in    
Wind  
Wind Speed 8 mph (NNE)    
Max Wind Speed 15 mph    
Max Gust Speed 21 mph    
Visibility 10 miles    
Events Rain    
Averages and records for this station are not official NWS values.
T = Trace of Precipitation, MM = Missing Value Source: NWS Daily Summary

Daily Weather History Graph

Daily Weather History Graph

Search for Another Location

Airport:

Trip Planner

Search our weather history database for the weather conditions in past years. The results will help you decide how hot, cold, wet, or windy it might be!

Date:

Astronomy

Apr. 11, 2014 Rise Set
Actual Time 6:12 AM HST 6:46 PM HST
Civil Twilight 5:50 AM HST 7:08 PM HST
Nautical Twilight 5:23 AM HST 7:35 PM HST
Astronomical Twilight 4:57 AM HST 8:02 PM HST
Moon 3:59 PM HST (4/11) 3:48 AM HST (4/11)
Length of Visible Light 13h 18m
Length of Day
12h 33m
Waxing Gibbous, 88% of the Moon is Illuminated
Apr 11
Waxing Gibbous
Apr 14
Full
Apr 21
Last Quarter
Apr 28
New
May 6
First Quarter

Hourly Weather History & Observations

Time (HST) Temp. Dew Point Humidity Pressure Visibility Wind Dir Wind Speed Gust Speed Precip Events Conditions
12:54 AM 70.0 °F 63.0 °F 78% 30.06 in 10.0 mi NNE 8.1 mph - N/A   Mostly Cloudy
1:54 AM 69.1 °F 64.0 °F 84% 30.06 in 10.0 mi Variable 6.9 mph - N/A   Overcast
2:54 AM 69.1 °F 63.0 °F 81% 30.04 in 10.0 mi NE 6.9 mph - N/A   Overcast
3:54 AM 69.1 °F 63.0 °F 81% 30.04 in 10.0 mi North 6.9 mph - 0.00 in Rain Light Rain
4:54 AM 69.1 °F 63.0 °F 81% 30.06 in 10.0 mi NNE 4.6 mph - 0.00 in   Overcast
5:54 AM 69.1 °F 62.1 °F 78% 30.07 in 10.0 mi NE 4.6 mph - N/A   Scattered Clouds
6:54 AM 69.1 °F 63.0 °F 81% 30.09 in 10.0 mi NNE 4.6 mph - N/A   Overcast
7:54 AM 73.9 °F 62.1 °F 66% 30.10 in 10.0 mi NNE 5.8 mph - N/A   Scattered Clouds
8:54 AM 75.0 °F 61.0 °F 62% 30.10 in 10.0 mi NE 8.1 mph - N/A   Overcast
8:57 AM 75.2 °F 60.8 °F 61% 30.09 in 10.0 mi NNE 9.2 mph - N/A   Scattered Clouds
9:54 AM 77.0 °F 62.1 °F 60% 30.10 in 10.0 mi NNE 6.9 mph - N/A   Scattered Clouds
10:54 AM 73.9 °F 63.0 °F 68% 30.10 in 10.0 mi NNE 9.2 mph 19.6 mph N/A   Mostly Cloudy
11:54 AM 78.1 °F 63.0 °F 60% 30.09 in 10.0 mi NNE 10.4 mph - N/A   Mostly Cloudy
12:54 PM 75.0 °F 62.1 °F 64% 30.07 in 10.0 mi NNE 11.5 mph 20.7 mph N/A   Scattered Clouds
1:54 PM 75.0 °F 64.9 °F 71% 30.06 in 10.0 mi NNE 10.4 mph 18.4 mph N/A   Scattered Clouds
2:54 PM 75.0 °F 64.0 °F 69% 30.06 in 10.0 mi NNE 9.2 mph 17.3 mph N/A   Mostly Cloudy
3:54 PM 75.0 °F 66.0 °F 73% 30.04 in 10.0 mi North 15.0 mph 20.7 mph N/A   Scattered Clouds
4:54 PM 73.9 °F 66.0 °F 76% 30.05 in 10.0 mi North 11.5 mph 18.4 mph N/A   Partly Cloudy
5:54 PM 73.0 °F 64.9 °F 76% 30.07 in 10.0 mi NNE 11.5 mph - N/A   Scattered Clouds
6:54 PM 70.0 °F 63.0 °F 78% 30.09 in 10.0 mi NNE 9.2 mph - N/A   Clear
7:54 PM 69.1 °F 64.0 °F 84% 30.11 in 10.0 mi NNE 8.1 mph - N/A   Clear
8:54 PM 70.0 °F 64.0 °F 81% 30.13 in 10.0 mi NNE 9.2 mph 16.1 mph N/A   Partly Cloudy
9:54 PM 70.0 °F 63.0 °F 78% 30.14 in 10.0 mi NNE 9.2 mph - N/A   Scattered Clouds
10:54 PM 70.0 °F 64.0 °F 81% 30.14 in 10.0 mi North 5.8 mph - N/A   Partly Cloudy
11:54 PM 70.0 °F 64.0 °F 81% 30.13 in 10.0 mi NNE 8.1 mph - N/A   Clear